Location: Campo Alegre
(10.4289°N, 66.6519°W)
Time: 02:20:20
(UTC+00:00)

Tiangong - Visible Passes

Search period start: 18 July 2024 00:00
Search period end: 28 July 2024 00:00
Orbit: 374 x 377 km, 41.5° (Epoch: 17 July)

Date Brightness Start Highest point End Pass type
(mag) Time Alt. Az. Time Alt. Az. Time Alt. Az.
21 Jul -0.2 23:34:52 10° S 23:36:09 14° SE 23:36:09 14° SE visible
23 Jul -2.2 00:07:14 10° SW 00:10:19 80° NW 00:11:00 50° NE visible
24 Jul 1.1 00:42:42 10° WNW 00:44:10 13° NW 00:45:36 10° N visible
24 Jul 0.9 08:53:45 10° N 08:55:47 16° NE 08:57:49 10° E visible
24 Jul -0.2 23:38:28 10° WSW 23:41:16 32° NW 23:44:05 10° NNE visible
25 Jul -2.3 09:26:26 10° NW 09:29:30 72° SW 09:32:35 10° SE visible
26 Jul 0.1 08:27:49 24° E 08:27:49 24° E 08:29:28 10° ESE visible
26 Jul 0.9 23:10:05 10° W 23:12:02 16° NW 23:14:00 10° N visible
27 Jul 0.2 09:02:19 14° SSE 09:02:19 14° SSE 09:02:53 10° SSE visible
